User: anonymous   Login
Location: Camp Creek
(33.9000°N, 111.8167°W)
Time: 17:23:16
(UTC-07:00)
Language:

DELTA 2 R/B (1) - Orbit

View from above orbital plane
View from above orbital plane
View from above satellite
View from above satellite

Ground track
Ground track

The orbit data is extracted from the following two-line orbital elements,

1 27665U 03005C   15028.54376855  .00000075  00000-0  63494-4 0  2189
2 27665 039.5739 223.0222 0007959 001.0301 029.3339 14.28287119626413
Epoch (UTC): 28 January 2015 13:03:01
Eccentricity: 0.0007959
inclination: 39.5739°
perigee height: 792 km
apogee height: 803 km
right ascension of ascending node: 223.0222°
argument of perigee: 1.0301°
revolutions per day: 14.28287119
mean anomaly at epoch: 29.3339°
orbit number at epoch: 62641

The dashed part of the orbit path shows where the satellite is in the earth's shadow,  

DLR